This is the latest recevied weather packets stored in our database for station/object KB1RMA-13. If no packets are shown the sender has not sent any weather packets the latest 10 day(s).
| Time | Temp. | Humidity | Pressure | Rain* | Wind** | Luminosity | Snow |
|---|---|---|---|---|---|---|---|
| 1777555395 | 8.89° C | 99% | 1008.7 hPa | 0 mm | - | 215 W/m² | - |
| 1777555091 | 8.89° C | 99% | 1008.7 hPa | 0 mm | - | 215 W/m² | - |
| 1777554789 | 8.89° C | 99% | 1008.6 hPa | 0 mm | - | 224 W/m² | - |
| 1777554486 | 8.33° C | 99% | 1008.5 hPa | 0 mm | - | 206 W/m² | - |
| 1777554182 | 8.33° C | 99% | 1008.9 hPa | 0 mm | - | 223 W/m² | - |
| 1777553879 | 8.33° C | 99% | 1008.8 hPa | 0 mm | - | 237 W/m² | - |
| 1777553575 | 8.33° C | 99% | 1009 hPa | 0 mm | - | 191 W/m² | - |
| 1777553271 | 8.33° C | 99% | 1008.9 hPa | 0 mm | - | 175 W/m² | - |
| 1777552967 | 7.78° C | 99% | 1009.1 hPa | 0 mm | - | 112 W/m² | - |
| 1777552662 | 7.78° C | 99% | 1009.1 hPa | 0 mm | - | 98 W/m² | - |
| 1777552359 | 7.78° C | 99% | 1009.1 hPa | 0 mm | - | 88 W/m² | - |
| 1777552056 | 7.78° C | 99% | 1009.1 hPa | 0 mm | - | 85 W/m² | - |
| 1777551753 | 7.78° C | 99% | 1009.2 hPa | 0 mm | - | 109 W/m² | - |
| 1777551450 | 7.78° C | 99% | 1009.3 hPa | 0 mm | - | 96 W/m² | - |
| 1777551146 | 7.78° C | 99% | 1009.4 hPa | 0 mm | - | 102 W/m² | - |
| 1777550844 | 7.78° C | 99% | 1009.4 hPa | 0 mm | - | 103 W/m² | - |
| 1777550541 | 7.78° C | 99% | 1009.2 hPa | 0 mm | - | 103 W/m² | - |
| 1777550236 | 7.78° C | 99% | 1009.1 hPa | 0 mm | - | 92 W/m² | - |
| 1777549933 | 7.22° C | 99% | 1008.9 hPa | 0 mm | - | 83 W/m² | - |
| 1777549629 | 7.22° C | 99% | 1008.7 hPa | 0 mm | - | 71 W/m² | - |
| 1777549324 | 7.22° C | 99% | 1008.8 hPa | 0 mm | - | 53 W/m² | - |
| 1777549023 | 7.22° C | 99% | 1008.4 hPa | 0 mm | - | 50 W/m² | - |
| 1777548718 | 7.22° C | 99% | 1008.6 hPa | 0 mm | - | 42 W/m² | - |
| 1777548416 | 7.22° C | 99% | 1008.6 hPa | 0 mm | - | 41 W/m² | - |
| 1777548112 | 7.22° C | 99% | 1008.6 hPa | 0 mm | - | 43 W/m² | - |
* Rain latest hour (hover to see other rain measurements)
** Current wind speed in m/s (hover to see current wind gust speed)